Location: Hohe Wand Kleine Kanzel
(47.8330°N, 16.0170°E)
Time: 12:54:30
(UTC+02:00)

Explorer 11/Cluster Stage 4 - All Passes

Search period start: 03 August 2021 00:00
Search period end: 13 August 2021 00:00
Orbit: 467 x 1257 km, 28.8° (Epoch: 02 August)

Date Brightness Start Highest point End Pass type
(mag) Time Alt. Az. Time Alt. Az. Time Alt. Az.
03 Aug - 09:46:50 10° SSW 09:51:34 17° S 09:56:24 10° SE daylight
03 Aug - 11:34:14 10° SW 11:39:26 18° S 11:44:34 10° SE daylight
03 Aug - 13:24:23 10° SW 13:27:08 12° SSW 13:29:50 10° S daylight
04 Aug - 09:35:18 10° SSW 09:40:06 17° S 09:45:03 10° SE daylight
04 Aug - 11:22:52 10° SW 11:27:58 18° S 11:33:03 10° SSE daylight
04 Aug - 13:13:32 10° SW 13:15:40 11° SSW 13:17:46 10° S daylight
05 Aug - 07:40:11 10° SSE 07:41:04 10° SSE 07:41:57 10° SSE daylight
05 Aug - 09:23:52 10° SSW 09:28:38 18° S 09:33:37 10° SE daylight
05 Aug - 11:11:34 10° SW 11:16:29 18° S 11:21:28 10° SSE daylight
05 Aug - 13:03:23 10° SSW 13:04:11 10° SSW 13:04:58 10° SSW daylight
06 Aug - 07:28:00 10° S 07:29:36 11° SSE 07:31:16 10° SE daylight
06 Aug - 09:12:30 10° SSW 09:17:11 18° S 09:22:08 10° SE daylight
06 Aug - 11:00:21 10° SW 11:05:02 17° S 11:09:48 10° SSE daylight
07 Aug - 07:16:15 10° S 07:18:11 11° SSE 07:20:11 10° SE daylight
07 Aug - 09:01:12 10° SSW 09:05:45 17° S 09:10:35 10° SE daylight
07 Aug - 10:49:13 10° SW 10:53:34 16° S 10:58:02 10° SSE daylight
08 Aug - 07:04:43 10° S 07:06:46 11° SSE 07:08:54 10° SE daylight
08 Aug - 08:49:59 10° SSW 08:54:19 17° S 08:58:58 10° SE daylight
08 Aug - 10:38:13 10° SW 10:42:06 15° SSW 10:46:09 10° SSE daylight
09 Aug - 06:53:21 10° S 06:55:23 11° SSE 06:57:31 10° SE daylight
09 Aug - 08:38:51 10° SSW 08:42:54 16° S 08:47:18 10° SE daylight
09 Aug - 10:27:22 10° SW 10:30:40 13° SSW 10:34:06 10° SSE daylight
10 Aug - 06:42:06 10° S 06:44:01 11° SSE 06:46:03 10° SE daylight
10 Aug - 08:27:48 10° SSW 08:31:31 15° S 08:35:33 10° SSE daylight
10 Aug - 10:16:46 10° SW 10:19:15 12° SSW 10:21:48 10° S daylight
11 Aug - 06:30:58 10° S 06:32:40 11° SSE 06:34:28 10° SSE daylight
11 Aug - 08:16:52 10° SSW 08:20:10 14° S 08:23:44 10° SSE daylight
11 Aug - 10:07:01 10° SSW 10:07:50 10° SSW 10:08:39 10° S daylight
12 Aug - 06:20:01 10° S 06:21:21 11° SSE 06:22:45 10° SSE daylight
12 Aug - 08:06:02 10° SSW 08:08:49 13° S 08:11:47 10° SSE daylight
